Location: Bédeille
(43.0872°N, 1.1041°E)
Time: 13:08:34
(UTC+00:00)

Cosmos 2278 Rocket - Pass Details

Date: 03 February 2023
Orbit: 841 x 845 km, 71.0° (Epoch: 19 March)

Event Time Altitude Azimuth Distance (km) Brightness Sun altitude
Rises 18:13:19 0° 349° (NNW) 3,415 5.4 -11.8°
Reaches altitude 10° 18:18:54 10° 33° (NNE) 2,473 4.2 -12.8°
Maximum altitude 18:19:25 10° 38° (NE) 2,465 4.2 -12.9°
Enters shadow 18:19:41 10° 41° (NE) 2,466 4.2 -13.0°
